Location: Lahas
(43.5538°N, 0.8906°E)
Time: 07:35:42
(UTC+00:00)

USA 234 - Pass Details

Date: 15 May 2026
Orbit: 1102 x 1106 km, 123.0° (Epoch: 4 January)

Event Time Altitude Azimuth Distance (km) Brightness Sun altitude
Rises 22:41:36 0° 53° (NE) 3,925 6.4 -25.3°
Reaches altitude 10° 22:44:16 10° 60° (ENE) 2,964 5.6 -25.5°
Enters shadow 22:49:36 40° 112° (ESE) 1,567 3.7 -25.7°
